Wind_Speed
31 31 32 32 30 29 28 28 30 31 32 30 27 26 27 28 29 31 33 37 39 40 40 40 39 39 39 38 37 37 38 39 40 40 41 41 41 41 41 41 42 42 42
30 30 31 32 31 32 31 31 32 32 33 32 30 30 29 31 32 34 36 38 40 40 39 37 36 35 36 37 38 39 40 42 43 44 44 44 44 44 45 45 45 46 45
30 30 31 32 33 33 32 32 32 34 35 33 31 31 31 33 34 36 38 39 39 38 36 35 35 36 38 40 41 42 43 44 46 48 48 48 48 49 50 51 51 51 51
32 31 32 33 33 32 31 31 33 35 35 33 32 32 33 34 35 37 39 39 38 38 37 38 39 41 42 44 46 47 48 49 50 52 54 54 54 55 56 56 56 56 57
34 33 33 34 33 32 32 32 34 35 33 33 34 35 36 36 37 39 40 40 40 40 41 42 43 45 47 49 51 52 54 55 55 56 58 58 58 59 60 61 61 61 61
36 35 34 34 32 31 31 32 32 33 33 35 37 39 39 40 41 42 42 42 43 43 45 46 48 50 52 53 55 56 58 58 59 60 61 61 61 62 63 64 64 65 65
36 37 35 33 31 31 31 32 33 34 36 39 41 42 42 43 44 45 45 45 46 47 49 51 53 55 56 58 60 61 61 61 61 62 63 65 66 67 68 68 68 68 68
38 38 35 34 33 34 34 35 37 38 40 42 43 46 47 46 47 47 48 48 49 51 53 55 57 59 61 62 63 63 64 64 64 66 68 70 71 72 73 73 73 74 74
37 39 37 37 37 37 38 39 41 42 44 45 46 47 48 48 47 49 50 51 52 55 58 60 62 64 66 68 68 69 69 70 70 71 72 74 75 77 79 79 80 81 82
37 39 40 41 42 43 43 43 45 46 47 48 49 50 50 51 50 48 49 52 55 58 60 63 65 67 70 71 73 74 74 74 74 75 76 78 80 83 84 86 87 88 89
38 39 41 42 44 45 45 46 47 48 49 51 51 51 51 53 53 52 51 54 56 58 60 64 68 71 73 74 74 74 74 74 76 78 80 82 84 86 87 89 91 93 95
40 40 41 43 44 45 46 47 48 50 51 52 52 52 53 54 54 56 57 58 59 60 63 66 69 72 73 73 73 74 75 77 78 80 82 84 86 89 92 95 98 101 103
42 42 43 45 46 46 47 48 50 51 52 52 52 53 54 55 57 60 62 63 64 66 69 71 72 73 73 74 76 77 79 81 83 85 88 91 95 99 103 106 109 112 115
42 42 43 44 45 47 48 50 51 51 52 52 53 54 56 58 60 62 64 67 69 71 74 75 76 78 80 80 82 84 87 90 94 97 101 104 107 110 112 114 115 117 118
42 42 42 43 45 47 48 49 50 51 52 53 54 57 60 61 62 64 66 70 74 76 76 76 78 80 82 85 88 92 97 102 106 109 112 114 114 111 107 101 96 93 91
41 42 41 42 44 46 47 49 51 52 53 55 58 60 61 62 63 66 70 74 75 77 77 77 81 84 89 93 98 104 109 112 113 113 111 105 97 88 79 71 65 63 64
40 41 41 42 44 46 48 50 51 53 55 58 60 60 62 64 68 71 73 74 77 79 79 80 85 90 97 103 109 114 115 110 103 94 85 76 68 61 56 53 50 48 48
39 41 42 44 45 46 48 50 53 55 58 59 61 63 65 68 70 72 74 77 79 82 86 88 91 98 105 110 112 109 100 88 78 67 60 56 52 50 47 44 42 42 43
39 42 43 45 46 47 49 52 55 57 59 62 64 66 68 70 72 75 77 80 84 88 93 98 101 105 107 105 98 86 74 64 55 51 49 46 44 43 41 41 40 40 40
39 41 44 45 46 49 51 54 57 59 62 64 67 69 71 73 75 77 81 85 90 95 101 106 108 105 97 84 73 62 51 45 43 43 42 41 40 40 40 41 41 40 38
39 42 44 45 48 51 53 56 59 62 64 66 69 71 73 74 77 82 87 92 98 103 107 107 101 90 74 61 51 43 38 36 36 39 38 38 39 40 42 42 42 41 38
40 42 44 47 50 52 56 59 61 63 66 69 71 72 74 78 82 88 93 99 104 105 103 94 82 67 54 45 39 35 33 31 31 36 36 35 38 39 40 40 39 38 37
40 43 46 49 51 54 57 60 63 66 68 70 71 74 79 83 88 93 98 103 102 95 85 75 62 50 42 38 34 29 29 29 31 35 33 31 34 35 35 34 33 32 33
41 44 47 50 53 55 59 62 65 66 68 70 75 79 84 89 94 99 102 99 88 76 67 58 48 41 38 35 31 28 28 27 28 34 33 30 30 31 31 29 27 27 27
42 45 48 50 54 57 60 63 65 66 70 74 79 84 88 93 99 101 97 86 71 60 52 45 40 39 37 33 32 31 31 30 28 31 32 31 30 30 29 25 23 22 23
44 46 49 52 55 58 61 62 65 69 73 77 82 87 94 98 100 93 81 67 54 46 42 40 39 38 37 36 37 37 35 33 30 28 29 29 29 26 24 25 22 21 23
Wind_Direction
263 261 261 262 262 265 270 277 285 288 292 291 285 282 285 288 291 293 295 295 294 295 296 294 291 287 285 283 282 280 280 279 278 276 274 272 271 269 267 264 263 261 261
268 264 263 264 263 265 269 275 281 284 289 287 281 279 282 287 291 293 294 294 293 294 294 293 292 290 287 286 284 283 282 281 280 279 276 274 272 271 269 268 266 264 262
268 262 261 262 262 264 267 272 278 282 284 283 280 280 284 288 291 294 295 295 293 292 291 291 290 289 288 286 285 283 281 280 280 279 278 276 274 272 270 269 268 266 265
266 260 261 262 263 264 265 271 276 280 281 280 279 282 286 289 292 295 296 294 291 288 287 287 287 286 285 284 283 281 280 279 277 277 276 275 274 273 272 271 269 268 267
266 259 259 262 263 265 268 273 278 281 280 279 281 285 288 288 291 294 294 291 288 286 285 285 285 283 283 282 282 281 281 280 279 277 276 276 275 274 273 272 271 270 268
265 257 257 261 265 269 272 276 282 284 283 283 286 288 289 289 291 294 293 290 287 285 284 284 284 284 284 284 285 284 284 283 281 280 279 278 277 276 274 273 272 271 270
261 255 256 261 266 270 275 279 284 285 286 288 290 292 291 291 292 293 292 290 287 285 286 286 287 287 287 288 288 287 286 284 283 281 280 279 278 277 275 274 272 271 269
258 253 256 262 267 271 275 281 284 285 288 291 293 294 293 292 292 292 291 289 288 288 289 289 289 290 290 291 290 289 288 286 285 283 282 280 279 277 275 274 272 271 269
257 254 257 263 269 272 276 281 285 287 289 291 293 292 292 290 291 291 291 290 290 290 291 291 292 293 294 294 293 292 290 288 286 284 282 280 279 277 276 275 273 271 270
258 257 260 266 271 275 279 283 286 288 289 290 292 292 290 289 288 286 285 286 287 288 290 292 293 294 293 293 293 292 291 289 287 285 283 282 280 279 278 277 275 273 272
260 261 264 268 272 276 280 282 284 286 289 290 292 292 290 290 290 288 287 287 287 287 288 290 291 291 291 292 292 291 290 288 286 284 282 280 279 278 277 276 275 273 272
263 265 268 271 274 277 279 281 284 287 289 291 292 291 291 291 291 291 291 291 291 290 290 291 291 292 293 293 292 290 288 286 284 282 281 279 278 277 276 275 274 273 272
266 269 272 274 277 279 281 284 286 288 291 292 293 293 292 292 292 293 293 294 293 293 293 293 293 293 293 292 291 290 289 287 285 284 282 281 279 278 277 276 274 273 271
268 271 275 277 279 281 284 287 289 290 293 294 294 293 293 293 294 295 295 294 294 294 296 297 297 297 296 295 295 294 293 291 290 288 286 284 283 282 281 279 277 275 273
271 274 277 280 282 284 287 288 290 293 294 295 295 294 295 295 296 296 295 295 296 297 298 299 299 298 298 298 298 297 297 295 294 292 289 288 287 286 285 284 282 280 277
274 277 280 282 283 286 288 291 293 295 296 296 296 297 297 298 297 296 296 298 299 300 300 301 301 300 300 300 299 299 298 298 296 293 291 290 290 289 289 288 286 284 281
277 281 283 284 286 288 292 294 295 296 297 298 298 299 299 299 299 299 300 301 301 302 302 302 302 302 301 301 300 300 300 299 296 293 292 292 292 293 293 292 290 289 288
280 283 285 286 289 292 293 295 297 298 299 300 300 301 301 302 302 302 303 303 303 304 304 304 304 304 303 303 303 302 300 297 295 294 294 295 296 296 295 294 293 292 292
281 284 286 289 291 293 294 296 299 300 301 302 303 304 304 304 304 304 304 305 306 306 306 306 306 306 306 305 303 301 299 297 295 295 296 297 298 298 296 295 294 295 296
282 285 288 290 292 294 296 299 301 302 303 304 305 305 305 305 305 306 307 308 308 307 308 308 309 309 308 305 303 301 298 296 295 296 298 299 298 298 297 299 301 302 301
284 286 289 292 294 297 299 301 303 304 305 306 306 306 306 307 308 309 309 309 309 309 309 310 310 310 308 306 304 301 299 296 297 296 298 300 300 300 302 304 305 305 303
285 288 291 294 297 300 302 303 304 305 306 306 306 307 308 309 309 309 309 310 310 311 312 312 311 310 308 306 304 303 299 296 296 295 299 301 300 301 302 304 304 303 300
287 291 294 298 301 302 303 304 306 307 307 308 309 309 309 309 309 310 311 312 313 313 312 311 311 310 308 307 305 302 300 299 297 296 300 301 300 302 305 307 308 307 306
292 295 298 301 302 303 304 306 307 308 309 310 310 310 310 311 311 312 313 314 314 313 312 311 311 310 309 307 304 302 301 299 298 298 301 303 304 308 312 314 315 316 317
296 298 300 302 303 304 306 307 308 310 310 311 311 311 311 312 313 314 314 315 315 313 311 311 310 310 309 306 304 304 304 302 298 297 301 305 308 312 315 319 321 323 326
298 300 301 302 304 306 307 309 309 310 311 311 312 313 314 315 315 316 316 316 314 311 310 310 310 310 309 307 307 306 305 303 300 296 296 301 305 310 312 316 317 320 324
Height
5803 5803 5802 5801 5800 5799 5799 5797 5796 5795 5794 5792 5790 5788 5786 5785 5782 5780 5777 5775 5773 5771 5768 5766 5764 5762 5761 5759 5759 5757 5756 5755 5754 5753 5752 5751 5750 5749 5749 5749 5749 5749 5749
5797 5797 5796 5795 5794 5793 5792 5791 5790 5789 5787 5785 5783 5782 5779 5777 5774 5772 5769 5767 5765 5763 5760 5757 5755 5753 5752 5750 5749 5748 5747 5745 5744 5743 5742 5741 5739 5739 5738 5738 5738 5738 5738
5791 5790 5789 5788 5787 5786 5786 5785 5783 5781 5779 5777 5776 5774 5772 5769 5766 5763 5761 5759 5756 5754 5751 5749 5747 5745 5743 5742 5740 5738 5737 5736 5733 5731 5730 5729 5729 5727 5726 5725 5725 5725 5726
5784 5783 5782 5781 5780 5780 5779 5777 5776 5774 5771 5770 5768 5766 5764 5761 5758 5755 5752 5750 5748 5745 5743 5741 5739 5737 5735 5732 5730 5727 5726 5724 5722 5719 5717 5716 5715 5714 5712 5711 5711 5712 5712
5777 5776 5775 5775 5774 5773 5772 5770 5769 5766 5764 5762 5760 5758 5755 5752 5750 5747 5744 5741 5739 5736 5734 5732 5730 5727 5724 5721 5718 5715 5712 5711 5708 5705 5703 5702 5701 5699 5697 5696 5695 5695 5696
5770 5769 5769 5768 5767 5766 5764 5763 5762 5759 5757 5755 5752 5750 5746 5743 5741 5738 5735 5732 5730 5727 5724 5721 5718 5715 5712 5708 5705 5702 5699 5696 5693 5690 5687 5686 5685 5683 5681 5680 5679 5678 5678
5763 5763 5762 5761 5760 5758 5757 5756 5754 5753 5750 5747 5743 5741 5738 5735 5731 5728 5725 5723 5720 5716 5712 5708 5705 5702 5698 5695 5691 5687 5684 5680 5677 5674 5671 5669 5667 5666 5664 5662 5661 5660 5659
5756 5756 5756 5755 5753 5751 5750 5748 5747 5745 5743 5739 5735 5731 5728 5726 5722 5718 5715 5712 5708 5704 5699 5695 5690 5686 5682 5679 5675 5670 5667 5663 5660 5657 5653 5651 5648 5646 5644 5643 5641 5640 5639
5749 5749 5748 5747 5745 5743 5742 5740 5738 5736 5734 5731 5727 5724 5720 5716 5713 5709 5703 5699 5695 5690 5685 5680 5675 5669 5664 5660 5656 5652 5647 5644 5640 5637 5634 5630 5627 5625 5623 5620 5619 5617 5616
5741 5741 5740 5739 5737 5735 5733 5731 5729 5727 5724 5721 5718 5714 5710 5706 5703 5702 5698 5691 5686 5680 5674 5667 5661 5655 5649 5644 5638 5633 5628 5624 5620 5616 5612 5608 5604 5601 5598 5595 5592 5590 5588
5734 5733 5732 5730 5728 5726 5724 5722 5720 5717 5714 5710 5706 5702 5699 5695 5690 5687 5685 5681 5675 5669 5663 5656 5648 5641 5634 5628 5622 5616 5610 5605 5600 5595 5590 5585 5581 5577 5573 5568 5564 5561 5558
5725 5724 5723 5721 5719 5717 5715 5712 5710 5707 5703 5699 5694 5690 5687 5682 5677 5672 5669 5665 5660 5654 5648 5641 5633 5623 5615 5608 5602 5596 5591 5585 5579 5573 5567 5561 5555 5550 5545 5540 5535 5530 5525
5717 5715 5713 5712 5710 5707 5705 5702 5699 5695 5691 5687 5683 5678 5674 5669 5663 5657 5652 5647 5642 5636 5629 5622 5613 5604 5596 5589 5582 5575 5568 5562 5555 5548 5540 5533 5526 5519 5512 5506 5500 5494 5489
5708 5706 5704 5702 5700 5697 5695 5692 5687 5683 5679 5674 5670 5665 5660 5654 5648 5642 5636 5629 5624 5619 5610 5601 5591 5581 5571 5563 5556 5548 5540 5532 5524 5515 5506 5497 5488 5479 5470 5462 5455 5448 5441
5699 5698 5695 5693 5691 5688 5685 5681 5676 5672 5667 5662 5657 5652 5646 5639 5633 5626 5619 5611 5604 5599 5592 5582 5570 5559 5547 5538 5529 5519 5508 5497 5486 5474 5463 5453 5444 5435 5425 5415 5407 5401 5394
5691 5689 5687 5684 5681 5678 5675 5670 5665 5661 5656 5650 5644 5638 5631 5624 5617 5610 5602 5594 5585 5577 5571 5563 5548 5536 5522 5511 5499 5487 5474 5462 5449 5434 5421 5411 5403 5396 5389 5381 5375 5370 5364
5683 5680 5678 5675 5672 5668 5664 5659 5655 5649 5644 5637 5631 5623 5616 5608 5601 5593 5584 5575 5566 5556 5549 5544 5529 5514 5499 5483 5468 5452 5436 5423 5410 5398 5389 5382 5376 5371 5366 5360 5354 5349 5344
5674 5672 5669 5666 5662 5658 5653 5648 5643 5638 5631 5624 5616 5608 5600 5592 5583 5574 5565 5555 5545 5534 5524 5518 5509 5492 5474 5454 5436 5420 5403 5389 5379 5374 5368 5363 5359 5354 5349 5344 5339 5335 5329
5665 5663 5660 5656 5652 5647 5642 5637 5632 5625 5617 5609 5601 5593 5584 5575 5566 5556 5546 5536 5525 5513 5500 5488 5478 5463 5444 5424 5407 5392 5378 5368 5362 5358 5354 5350 5345 5340 5336 5331 5326 5322 5317
5656 5654 5650 5646 5642 5637 5632 5626 5619 5612 5603 5595 5586 5577 5568 5558 5548 5538 5527 5515 5503 5489 5474 5459 5446 5431 5413 5396 5381 5371 5363 5356 5351 5346 5342 5338 5334 5329 5324 5319 5314 5309 5304
5648 5645 5641 5636 5631 5626 5620 5613 5606 5598 5590 5581 5571 5561 5552 5542 5531 5519 5507 5493 5478 5462 5446 5431 5416 5401 5387 5376 5365 5357 5352 5347 5342 5336 5333 5330 5323 5318 5313 5308 5302 5296 5291
5639 5635 5631 5626 5621 5615 5608 5601 5593 5585 5576 5566 5556 5546 5536 5525 5514 5501 5486 5469 5451 5433 5418 5403 5390 5378 5369 5361 5354 5348 5343 5339 5335 5329 5324 5321 5314 5309 5303 5299 5293 5286 5279
5630 5626 5621 5616 5609 5603 5596 5588 5580 5571 5562 5551 5541 5530 5520 5507 5494 5479 5464 5446 5427 5407 5392 5380 5372 5363 5356 5350 5345 5340 5335 5330 5325 5319 5316 5313 5306 5300 5295 5289 5283 5277 5270
5621 5616 5611 5605 5598 5591 5584 5576 5567 5558 5547 5537 5526 5514 5501 5487 5471 5456 5441 5423 5405 5389 5375 5365 5359 5352 5346 5340 5335 5332 5327 5323 5319 5310 5306 5303 5298 5292 5286 5280 5275 5269 5263
5611 5606 5600 5594 5587 5580 5572 5563 5554 5545 5535 5523 5511 5497 5482 5467 5450 5433 5418 5403 5388 5374 5363 5355 5349 5343 5337 5331 5326 5322 5319 5315 5311 5305 5298 5294 5289 5283 5278 5273 5268 5262 5257
5601 5595 5589 5583 5576 5568 5559 5551 5542 5533 5522 5509 5495 5479 5462 5445 5427 5409 5395 5384 5374 5364 5356 5349 5342 5336 5329 5324 5318 5313 5308 5305 5301 5298 5292 5287 5281 5276 5272 5267 5263 5257 5252